Location: Hurstbourne Priors
(51.2000°N, 1.3667°W)
Time: 21:23:15
(UTC+00:00)

Altair - Pass Details

Date: 17 April 2021
Orbit: 1501 x 1683 km, 47.2° (Epoch: 13 May)

Event Time Altitude Azimuth Distance (km) Brightness Sun altitude
Rises 06:12:18 0° 215° (SW) 4,864 9.7 9.3°
Reaches altitude 10° 06:15:44 10° 208° (SSW) 3,857 9.3 9.9°
Maximum altitude 06:24:29 39° 145° (SE) 2,239 8.9 11.3°
Drops below altitude 10° 06:32:57 10° 81° (E) 3,737 12.2 12.6°
Sets 06:36:13 0° 74° (ENE) 4,699 11.7 13.1°
